Location: Newark
(41.8083°N, 72.2500°W)
Time: 10:57:00
(UTC+00:00)

Explorer 11/Cluster Stage 4 - Pass Details

Date: 15 December 2021
Orbit: 467 x 1255 km, 28.8° (Epoch: 24 January)

Event Time Altitude Azimuth Distance (km) Brightness Sun altitude
Rises 02:48:38 0° 225° (SW) 2,494 - -59.7°
Reaches altitude 10° 02:52:09 10° 188° (S) 1,681 - -60.2°
Maximum altitude 02:53:21 11° 170° (S) 1,636 - -60.4°
Drops below altitude 10° 02:54:35 10° 151° (SSE) 1,751 - -60.6°
Sets 02:58:31 0° 117° (ESE) 2,799 - -61.3°
